Вернуться в каталог

COSMOS 1275 DEB

АктивенPO
NORAD 42143·DEBRIS·🇷🇺 Russia

Запущен Jun 4, 1981 с Plesetsk Cosmodrome

Loading…

Ближайшие Пролёты (ближайшие 24 часа)

TLE

УстаревающийSource: Space-Track

Эпоха: Sep 9, 2026, 09:01 UTC

1 42143U 81053RF  26252.37631221  .00000963  00000-0  86175-3 0  9991
2 42143  83.0149 126.6283 0093941 137.8069 223.0371 13.81359996642519

Отслеживайте COSMOS 1275 DEB в реальном времени с AllMySat

Download on the App Store